INMARSAT 3-F3

Last updated on Jan. 18, 2020, 4:38 a.m. UTC

1 24674U 96070A   20017.47997628  .00000028  00000-0  00000+0 0  9996
2 24674   5.2969  67.0840 0005112 232.1183 168.0391  1.00273192 84476
UTC
Height (km)
Latitude
Longitude
Inclination
Orbital Period
UTC large
Height (km)
Speed (km/s)
/
Latitude / Longitude
Inclination (degrees)
Orbital Period (minutes)
Azimuth
Elevation
Range (km)
Doppler Factor
iOS Compass Heading
iOS Angle

Next 30 passes for location: Hong Kong

Rise time Rise Azimuth (degrees) Set time Set Azimuth (degrees) Duration Max altitude (degrees)

No matching passes for this satellites